Home   Weather   Fukushima   Past weeks

Flag for Japan Past Weather in Fukushima, Japan — Yesterday and Last 2 Weeks

Now
47 °F

Cool.


Feels Like: 46 °F
Forecast: 40 / 72 °F
Wind: 3 mph from North

Location: Wakamatsu

Current Time: Apr 28, 2017 at 9:43:58 am

Latest Report: Apr 28, 2017 at 8:00 am


Visibility: 13 mi

Pressure: 29.83 "Hg

Humidity: 67%

Dew Point: 36 °F

Location of FukushimaLocation

Past Weather in Fukushima — Graph

°F

Fukushima Temperature Yesterday

Maximum temperature yesterday: 60 °F (at 2:00 pm)
Minimum temperature yesterday: 43 °F (at 11:00 pm)
Average temperature yesterday: 52 °F

High & Low Weather Summary for the Past Weeks

 TemperatureHumidityPressure
High74 °F (Apr 16, 2:00 pm)100% (Apr 15, 8:00 pm)30.36 "Hg (Apr 15, 8:00 pm)
Low29 °F (Apr 14, 5:00 am)25% (Apr 13, 4:00 pm)29.26 "Hg (Apr 18, 6:00 am)
Average52 °F70%29.91 "Hg
* Reported Apr 13 8:00 am — Apr 28 8:00 am, Fukushima, Weather by CustomWeather, © 2017

Note: Actual official high and low records may vary slightly from our data, if they occured in-between our weather recording intervals... More about our weather records

Advertising

Fukushima Weather History for the Previous 24 Hours

Scroll right to see more
 ConditionsComfort  
Time TempWeatherWind HumidityBarometerVisibility
8:00 am
Fri, Apr 28
47 °FCool.3 mph67%29.83 "Hg12 mi
7:00 am45 °FQuite cool.2 mph71%29.83 "Hg12 mi
6:00 am40 °FChilly.1 mph79%29.83 "Hg12 mi
5:00 am38 °FChilly.1 mph82%29.83 "Hg12 mi
4:00 am37 °FChilly.3 mph85%29.83 "Hg12 mi
3:00 am38 °FDuststorm.3 mph83%29.81 "Hg0 mi
2:00 am39 °FChilly.2 mph79%29.81 "Hg12 mi
1:00 am40 °FChilly.2 mph77%29.82 "Hg12 mi
12:00 am41 °FQuite cool.2 mph72%29.82 "Hg12 mi
11:00 pm
Thu, Apr 27
43 °FQuite cool.3 mph65%29.81 "Hg12 mi
10:00 pm48 °FCool.5 mph47%29.80 "Hg12 mi
9:00 pm48 °FCool.7 mph44%29.79 "Hg12 mi
8:00 pm49 °FCool.3 mph49%29.78 "Hg12 mi
7:00 pm52 °FCool.3 mph40%29.75 "Hg12 mi
6:00 pm56 °FRefreshingly cool.12 mph29%29.72 "Hg12 mi
5:00 pm58 °FRefreshingly cool.10 mph29%29.70 "Hg12 mi
4:00 pm60 °FRefreshingly cool.14 mph30%29.69 "Hg12 mi
3:00 pm58 °FRefreshingly cool.16 mph28%29.69 "Hg12 mi
2:00 pm60 °FRefreshingly cool.16 mph35%29.67 "Hg12 mi
1:00 pm58 °FRefreshingly cool.15 mph35%29.69 "Hg12 mi
12:00 pm58 °FRefreshingly cool.14 mph34%29.70 "Hg12 mi
11:00 am56 °FRefreshingly cool.12 mph39%29.71 "Hg12 mi
10:00 am56 °FRefreshingly cool.10 mph54%29.73 "Hg12 mi
9:00 am53 °FCool.6 mph62%29.74 "Hg12 mi
Weather by CustomWeather, © 2017

See weather overviewHow to use our weather pages